This demonstration page uses our WeatherBlox Daily Observations layout. Learn more.

Left ArrowRight Arrow

41.86663, -103.66717

Hourly Observations for April 19, 2018

Temp ( °F °C ) Dew Point ( °F °C ) Humidity (%) Winds ( mph kmh ) Pressure ( in mb ) Visibility ( mi km ) Precip ( " mm )
12:53 am 00:53 Clear 32 undefined 25 -3.9 75 75 E 9 15 30.30 1026 10 16 N/A
1:53 am 01:53 Clear 31 -0.6 26 -3.3 82 82 E 9 15 30.31 1026 10 16 N/A
2:53 am 02:53 Clear 28 -2.2 24 -4.4 85 85 E 7 11 30.32 1027 10 16 N/A
3:53 am 03:53 Clear 29 -1.7 27 -2.8 92 92 ESE 6 9 30.32 1027 10 16 N/A
4:53 am 04:53 Clear 30 -1.1 28 -2.2 92 92 E 9 15 30.32 1027 10 16 N/A
5:53 am 05:53 Clear 29 -1.7 28 -2.2 96 96 ESE 9 15 30.34 1027 10 16 N/A
6:53 am 06:53 Sunny 31 -0.6 30 -1.1 96 96 ESE 10 17 30.34 1028 10 16 N/A
7:53 am 07:53 Sunny 37 2.8 33 0.6 86 86 ESE 14 22 30.36 1028 10 16 N/A
8:53 am 08:53 Sunny 43 6.1 33 0.6 68 68 ESE 15 24 30.34 1028 10 16 N/A
9:53 am 09:53 Sunny 51 10.6 32 undefined 48 48 SE 17 28 30.29 1026 10 16 N/A
10:53 am 10:53 Sunny 53 11.7 30 -1.1 41 41 SE 23 37 30.28 1026 10 16 N/A
11:53 am 11:53 Sunny 56 13.3 30 -1.1 37 37 SSE 24 39 30.24 1024 10 16 N/A
12:53 pm 12:53 Sunny 58 14.4 30 -1.1 35 35 SE 23 37 30.21 1023 10 16 N/A
1:53 pm 13:53 Sunny 62 16.7 29 -1.7 29 29 SSE 23 37 30.16 1022 10 16 N/A
2:53 pm 14:53 Sunny 61 16.1 30 -1.1 31 31 SSE 22 35 30.14 1021 10 16 N/A
3:53 pm 15:53 Sunny 62 16.7 30 -1.1 30 30 SE 24 39 30.09 1019 10 16 N/A
4:53 pm 16:53 Sunny 61 16.1 30 -1.1 31 31 SE 26 43 30.08 1019 10 16 N/A
5:53 pm 17:53 Sunny 60 15.6 29 -1.7 31 31 SE 24 39 30.08 1019 10 16 N/A
6:53 pm 18:53 Sunny 58 14.4 30 -1.1 35 35 SE 23 37 30.07 1018 10 16 N/A
7:53 pm 19:53 Clear 52 11.1 32 undefined 47 47 ESE 22 35 30.07 1018 10 16 N/A
8:53 pm 20:53 Clear 49 9.4 31 -0.6 50 50 ESE 21 33 30.08 1019 10 16 N/A
9:53 pm 21:53 Clear 49 9.4 29 -1.7 46 46 ESE 24 39 30.06 1018 10 16 N/A
10:53 pm 22:53 Clear 46 7.8 28 -2.2 50 50 ESE 26 43 30.07 1018 10 16 N/A
11:53 pm 23:53 Clear 44 6.7 27 -2.8 51 51 ESE 29 46 30.06 1018 10 16 N/A

Powered by AerisWeather